GW4969 Weather Reports


time (UTC)temp
F
wind
direction
speed
knots
gust
knots
rain 1hr
in
rain 24hr
in
rain mn
in
humidity
%
barometer
mb
20260505235806 63 275 0.0 2.6 0.00 0.00 0.00 63 1015.5
20260505235306 63 274 0.9 3.5 0.00 0.00 0.00 63 1015.5
20260505234807 63 255 0.0 3.5 0.00 0.00 0.00 63 1015.5
20260505234523 63 106 0.0 1.7 0.00 0.00 0.00 63 1015.6
20260505234251 63 314 0.0 1.7 0.00 0.00 0.00 63 1015.6
20260505233307 63 296 0.9 2.6 0.00 0.00 0.00 63 1015.7
20260505232806 63 293 0.0 2.6 0.00 0.00 0.00 63 1015.8
20260505232306 63 300 0.9 1.7 0.00 0.00 0.00 63 1015.7
20260505231805 63 305 0.9 1.7 0.00 0.00 0.00 63 1015.7
20260505231305 63 305 0.0 2.6 0.00 0.00 0.00 64 1015.7
20260505230805 63 278 0.9 2.6 0.00 0.00 0.00 64 1015.6
20260505230306 63 303 0.9 2.6 0.00 0.00 0.00 63 1015.7
20260505225805 63 272 0.0 2.6 0.00 0.00 0.00 63 1015.6
20260505225306 63 298 1.7 2.6 0.00 0.00 0.00 64 1015.6
20260505224805 63 293 0.9 3.5 0.00 0.00 0.00 64 1015.7
20260505224305 63 293 1.7 3.5 0.00 0.00 0.00 64 1015.8
20260505223805 62 288 0.9 2.6 0.00 0.00 0.00 63 1015.8
20260505223305 62 282 0.9 3.5 0.00 0.00 0.00 65 1015.7
20260505222804 62 279 1.7 3.5 0.00 0.00 0.00 64 1015.8
20260505222306 62 272 1.7 2.6 0.00 0.00 0.00 65 1015.8
20260505221804 62 269 0.9 2.6 0.00 0.00 0.00 65 1015.8
20260505221304 62 79 0.9 2.6 0.00 0.00 0.00 65 1015.9
20260505220804 62 293 0.9 2.6 0.00 0.00 0.00 66 1016.0
20260505220522 61 293 0.0 2.6 0.00 0.00 0.00 65 1015.9
20260505215803 61 295 0.9 2.6 0.00 0.00 0.00 66 1016.0
20260505215305 61 290 0.9 2.6 0.00 0.00 0.00 66 1016.0
20260505215023 61 357 0.9 2.6 0.00 0.00 0.00 66 1016.1
20260505214303 61 316 0.9 2.6 0.00 0.00 0.00 66 1016.1
20260505213803 62 87 0.0 1.7 0.00 0.00 0.00 66 1016.1
20260505213303 62 87 0.0 1.7 0.00 0.00 0.00 66 1016.2
20260505212803 61 87 0.9 1.7 0.00 0.00 0.00 66 1016.2
20260505212305 61 87 0.0 1.7 0.00 0.00 0.00 68 1016.3
20260505211802 61 87 1.7 1.7 0.00 0.00 0.00 68 1016.3
20260505211302 61 92 0.0 1.7 0.00 0.00 0.00 67 1016.2
20260505210802 61 92 0.0 2.6 0.00 0.00 0.00 68 1016.1
20260505210302 60 92 0.9 2.6 0.00 0.00 0.00 68 1016.2
20260505205803 60 94 0.9 2.6 0.00 0.00 0.00 69 1016.1
20260505205524 60 94 0.9 2.6 0.00 0.00 0.00 69 1016.2
20260505204802 60 90 0.9 1.7 0.00 0.00 0.00 69 1016.2
20260505204301 60 90 0.0 1.7 0.00 0.00 0.00 69 1016.3
20260505203802 60 83 0.9 2.6 0.00 0.00 0.00 70 1016.2
20260505203520 60 83 0.9 2.6 0.00 0.00 0.00 69 1016.2
20260505203025 60 80 0.9 2.6 0.00 0.00 0.00 69 1016.3
20260505202302 60 78 0.0 1.7 0.00 0.00 0.00 69 1016.2
20260505201801 60 78 0.0 1.7 0.00 0.00 0.00 69 1016.2
20260505201302 60 75 0.0 3.5 0.00 0.00 0.00 69 1016.3
20260505200801 60 79 0.9 3.5 0.00 0.00 0.00 69 1016.3
20260505200301 60 94 1.7 3.5 0.00 0.00 0.00 69 1016.4
20260505195800 60 99 1.7 3.5 0.00 0.00 0.00 69 1016.5
20260505195301 60 116 1.7 3.5 0.00 0.00 0.00 69 1016.5
20260505194800 60 90 1.7 3.5 0.00 0.00 0.00 70 1016.5
20260505194300 60 54 1.7 2.6 0.00 0.00 0.00 70 1016.5
20260505193800 60 0 0.0 2.6 0.00 0.00 0.00 69 1016.5
20260505193301 60 321 0.0 2.6 0.00 0.00 0.00 69 1016.6
20260505192800 59 329 0.0 2.6 0.00 0.00 0.00 68 1016.7
20260505192519 59 331 0.9 2.6 0.00 0.00 0.00 69 1016.6
20260505191800 59 305 0.0 3.5 0.00 0.00 0.00 69 1016.6
20260505191606 59 23 0.9 4.3 0.00 0.00 0.00 69 1016.5
20260505191501 59 310 0.9 4.3 0.00 0.00 0.00 70 1016.4
20260505190259 59 251 1.7 5.2 0.00 0.00 0.00 71 1016.4
20260505185759 58 278 0.9 5.2 0.00 0.00 0.00 71 1016.4
20260505185259 58 302 1.7 4.3 0.00 0.00 0.00 71 1016.3
20260505184759 58 275 0.9 4.3 0.00 0.00 0.00 71 1016.4
20260505184300 58 282 0.9 4.3 0.00 0.00 0.00 72 1016.4
20260505183759 58 266 2.6 4.3 0.00 0.00 0.00 73 1016.5
20260505183259 58 279 0.0 1.7 0.00 0.00 0.00 73 1016.5
20260505182758 57 282 0.0 2.6 0.00 0.00 0.00 74 1016.5
20260505182258 57 282 0.9 2.6 0.00 0.00 0.00 74 1016.5
20260505181758 57 25 0.9 1.7 0.00 0.00 0.00 74 1016.6
20260505181520 57 41 0.0 0.9 0.00 0.00 0.00 74 1016.5
20260505180758 58 41 0.0 3.5 0.00 0.00 0.00 74 1016.5
20260505180519 58 41 0.0 3.5 0.00 0.00 0.00 73 1016.5
20260505175758 58 234 1.7 4.3 0.00 0.00 0.00 72 1016.4
20260505175523 58 92 0.9 4.3 0.00 0.00 0.00 70 1016.3
20260505174757 58 173 0.9 3.5 0.00 0.00 0.00 69 1016.4
20260505174256 58 278 1.7 2.6 0.00 0.00 0.00 69 1016.3
20260505173757 58 268 0.0 2.6 0.00 0.00 0.00 68 1016.2
20260505173257 58 265 0.0 2.6 0.00 0.00 0.00 69 1016.0
20260505172757 58 281 0.9 2.6 0.00 0.00 0.00 69 1016.0
20260505172516 57 264 0.9 3.5 0.00 0.00 0.00 69 1015.9
20260505171757 57 261 0.9 3.5 0.00 0.00 0.00 69 1015.9
20260505171521 57 176 0.9 1.7 0.00 0.00 0.00 69 1015.9
20260505170757 57 175 0.0 0.9 0.00 0.00 0.00 70 1015.8
20260505170255 57 173 0.0 0.9 0.00 0.00 0.00 69 1015.9
20260505165756 57 173 0.0 1.7 0.00 0.00 0.00 70 1015.9
20260505165515 57 173 0.9 1.7 0.00 0.00 0.00 69 1015.9
20260505164756 57 286 0.0 1.7 0.00 0.00 0.00 69 1015.9
20260505164257 57 283 0.9 1.7 0.00 0.00 0.00 69 1015.9
20260505163756 57 283 0.0 1.7 0.00 0.00 0.00 69 1015.8
20260505163256 57 283 0.9 1.7 0.00 0.00 0.00 70 1015.8
20260505163017 57 283 0.9 1.7 0.00 0.00 0.00 71 1015.6
20260505162255 57 283 0.0 1.7 0.00 0.00 0.00 71 1015.7
20260505161754 56 282 0.0 1.7 0.00 0.00 0.00 71 1015.8
20260505161255 56 281 0.0 1.7 0.00 0.00 0.00 71 1015.7
20260505160755 56 281 0.0 1.7 0.00 0.00 0.00 72 1015.7
20260505160256 56 281 0.0 1.7 0.00 0.00 0.00 72 1015.7
20260505153255 56 281 0.0 0.9 0.00 0.00 0.00 73 1015.5
20260505153016 55 281 0.0 0.9 0.00 0.00 0.00 73 1015.6
20260505152255 55 281 0.0 0.9 0.00 0.00 0.00 74 1015.4
20260505151754 55 281 0.0 0.9 0.00 0.00 0.00 73 1015.5
20260505151254 55 281 0.0 0.9 0.00 0.00 0.00 73 1015.4
20260505150754 55 281 0.0 0.9 0.00 0.00 0.00 74 1015.5
20260505150512 55 281 0.0 0.9 0.00 0.00 0.00 74 1015.4
20260505140252 54 281 0.0 1.7 0.00 0.00 0.00 75 1015.1
20260505130252 53 281 0.0 2.6 0.00 0.00 0.00 75 1014.7
20260505124751 53 281 0.0 1.7 0.00 0.00 0.00 75 1014.9
20260505124249 53 281 0.0 1.7 0.00 0.00 0.00 75 1014.9
20260505123750 53 281 0.9 1.7 0.00 0.00 0.00 75 1014.9
20260505123251 54 281 0.0 1.7 0.00 0.00 0.00 75 1014.9
20260505122750 54 281 0.0 1.7 0.00 0.00 0.00 75 1014.9
20260505122251 54 281 0.9 1.7 0.00 0.00 0.00 75 1015.0
20260505121750 54 281 0.0 1.7 0.00 0.00 0.00 75 1015.0
20260505121250 54 281 0.0 0.9 0.00 0.00 0.00 74 1014.9
20260505120749 54 281 0.0 0.9 0.00 0.00 0.00 74 1015.0
20260505120248 54 281 0.0 0.9 0.00 0.00 0.00 74 1015.0
20260505115749 54 281 0.0 1.7 0.00 0.00 0.00 74 1015.1
20260505115512 54 281 0.0 1.7 0.00 0.00 0.00 74 1015.0
20260505114749 54 281 0.0 1.7 0.00 0.00 0.00 74 1015.1
20260505114250 54 281 0.0 1.7 0.00 0.00 0.00 74 1015.0
20260505113749 54 281 0.0 0.9 0.00 0.00 0.00 74 1015.0
20260505113248 54 281 0.9 2.6 0.00 0.00 0.00 73 1015.2
20260505112749 54 281 0.0 2.6 0.00 0.00 0.00 73 1015.2
20260505112247 54 283 0.0 2.6 0.00 0.00 0.00 73 1015.1
20260505112017 54 286 0.9 1.7 0.00 0.00 0.00 73 1015.1
20260505111247 54 286 0.9 1.7 0.00 0.00 0.00 72 1015.0
20260505110748 54 286 0.0 1.7 0.00 0.00 0.00 72 1015.1
20260505110249 54 286 0.0 2.6 0.00 0.00 0.00 72 1015.1
20260505101747 54 261 0.9 4.3 0.00 0.00 0.00 70 1015.0
20260505101247 54 295 0.9 2.6 0.00 0.00 0.00 70 1015.0
20260505101012 54 298 0.9 3.5 0.00 0.00 0.00 70 1015.0
20260505100247 54 298 1.7 3.5 0.00 0.00 0.00 70 1015.1
20260505100011 54 288 0.9 3.5 0.00 0.00 0.00 70 1015.1
20260505095246 54 271 0.9 3.5 0.00 0.00 0.00 69 1015.2
20260505094747 54 258 2.6 3.5 0.00 0.00 0.00 69 1015.1
20260505094247 54 258 1.7 3.5 0.00 0.00 0.00 69 1015.2
20260505093746 55 272 1.7 2.6 0.00 0.00 0.00 68 1015.2
20260505093247 55 266 0.9 2.6 0.00 0.00 0.00 68 1015.3
20260505092746 55 290 0.9 3.5 0.00 0.00 0.00 68 1015.4
20260505092246 55 258 2.6 4.3 0.00 0.00 0.00 68 1015.4
20260505091744 55 281 0.9 5.2 0.00 0.00 0.00 67 1015.3
20260505091245 55 264 1.7 5.2 0.00 0.00 0.00 67 1015.3
20260505090745 55 262 2.6 6.1 0.00 0.00 0.00 66 1015.4
20260505090245 55 261 2.6 6.1 0.00 0.00 0.00 66 1015.4
20260505085745 55 293 2.6 6.1 0.00 0.00 0.00 65 1015.5
20260505085726 55 261 1.7 5.2 0.00 0.00 0.00 65 1015.5
20260505084745 55 293 1.7 5.2 0.00 0.00 0.00 66 1015.6
20260505084245 55 286 1.7 5.2 0.00 0.00 0.00 66 1015.5
20260505083745 55 279 1.7 6.1 0.00 0.00 0.00 67 1015.6
20260505083243 55 234 1.7 6.1 0.00 0.00 0.00 67 1015.7
20260505082744 55 226 1.7 4.3 0.00 0.00 0.00 67 1015.8
20260505082245 55 329 1.7 5.2 0.00 0.00 0.00 67 1015.8
20260505081745 55 271 1.7 5.2 0.00 0.00 0.00 67 1015.8
20260505081725 55 240 1.7 5.2 0.00 0.00 0.00 67 1015.8
20260505080745 55 274 2.6 6.1 0.00 0.00 0.00 66 1015.8
20260505080244 56 290 2.6 6.1 0.00 0.00 0.00 66 1015.8
20260505080004 56 264 2.6 5.2 0.00 0.00 0.00 66 1015.8
20260505075244 56 266 0.9 7.8 0.00 0.00 0.00 66 1015.9
20260505074745 56 258 2.6 7.8 0.00 0.00 0.00 66 1016.0
20260505074243 56 307 2.6 5.2 0.00 0.00 0.00 67 1015.9
20260505073743 56 259 1.7 4.3 0.00 0.00 0.00 67 1015.8
20260505073243 56 254 1.7 4.3 0.00 0.00 0.00 67 1015.8
20260505072743 56 252 0.9 6.1 0.00 0.00 0.00 68 1015.8
20260505072507 56 261 1.7 6.1 0.00 0.00 0.00 68 1015.8
20260505071743 56 296 1.7 4.3 0.00 0.00 0.00 69 1015.8
20260505071458 56 275 0.9 4.3 0.00 0.00 0.00 70 1015.7
20260505070742 56 290 1.7 4.3 0.00 0.00 0.00 70 1015.6
20260505070242 56 0 0.9 2.6 0.00 0.00 0.00 70 1015.6
20260505070008 56 247 0.9 2.6 0.00 0.00 0.00 71 1015.5
20260505065250 56 264 1.7 4.3 0.00 0.00 0.00 71 1015.4
20260505065242 56 289 1.7 4.3 0.00 0.00 0.00 71 1015.4
20260505064506 56 300 0.9 1.7 0.00 0.00 0.00 71 1015.6
20260505064007 56 303 0.0 1.7 0.00 0.00 0.00 70 1015.5
20260505063243 56 303 0.0 2.6 0.00 0.00 0.00 72 1015.5
20260505062742 56 63 0.9 2.6 0.00 0.00 0.00 72 1015.5
20260505062510 56 289 0.0 2.6 0.00 0.00 0.00 72 1015.5
20260505061741 56 286 0.9 2.6 0.00 0.00 0.00 72 1015.3
20260505061242 57 289 0.0 3.5 0.00 0.00 0.00 71 1015.3
20260505060742 57 276 0.0 6.1 0.00 0.00 0.00 71 1015.3
20260505060241 57 264 1.7 6.1 0.00 0.00 0.00 71 1015.3
20260505055742 57 271 1.7 6.1 0.00 0.00 0.00 71 1015.3
20260505055241 57 286 1.7 3.5 0.00 0.00 0.00 71 1015.4
20260505054742 57 247 1.7 2.6 0.00 0.00 0.00 71 1015.4
20260505054241 57 230 0.9 2.6 0.00 0.00 0.00 71 1015.5
20260505053740 58 272 0.9 3.5 0.00 0.00 0.00 71 1015.6
20260505053240 58 269 1.7 4.3 0.00 0.00 0.00 71 1015.6
20260505052741 58 275 2.6 5.2 0.00 0.00 0.00 72 1015.5
20260505052241 58 269 0.9 5.2 0.00 0.00 0.00 72 1015.6
20260505051740 58 247 0.9 6.1 0.00 0.00 0.00 72 1015.8
20260505051506 58 47 2.6 6.1 0.00 0.00 0.00 71 1015.8
20260505050740 58 278 0.0 4.3 0.00 0.00 0.00 70 1015.8
20260505050240 58 275 0.9 6.1 0.00 0.00 0.00 70 1015.8
20260505041737 58 251 1.7 5.2 0.00 0.00 0.00 67 1015.4
20260505041238 58 230 0.0 2.6 0.00 0.00 0.00 68 1015.3
20260505040739 58 6 0.9 5.2 0.00 0.00 0.00 68 1015.3
20260505040238 59 59 0.9 6.1 0.00 0.00 0.00 68 1015.2
20260505035739 59 30 1.7 6.1 0.00 0.00 0.00 68 1015.2
20260505035238 59 302 0.9 4.3 0.00 0.00 0.00 67 1015.1
20260505035000 59 262 0.9 5.2 0.00 0.00 0.00 67 1015.0
20260505034238 59 262 1.7 5.2 0.00 0.00 0.00 66 1015.0
20260505033738 59 262 1.7 3.5 0.00 0.00 0.00 67 1014.9
20260505033237 59 285 0.9 3.5 0.00 0.00 0.00 67 1014.8
20260505032737 59 52 0.9 3.5 0.00 0.00 0.00 67 1014.7
20260505032238 59 338 0.9 5.2 0.00 0.00 0.00 67 1014.6
20260505031737 60 266 1.7 5.2 0.00 0.00 0.00 67 1014.5
20260505031238 60 272 1.7 5.2 0.00 0.00 0.00 66 1014.5
20260505030737 60 72 0.9 5.2 0.00 0.00 0.00 66 1014.6
20260505030238 60 151 0.9 4.3 0.00 0.00 0.00 66 1014.6
20260505030001 60 149 0.9 4.3 0.00 0.00 0.00 65 1014.6
20260505025236 60 334 1.7 5.2 0.00 0.00 0.00 64 1014.5
20260505024959 60 219 1.7 5.2 0.00 0.00 0.00 63 1014.7
20260505024236 60 82 0.9 5.2 0.00 0.00 0.00 63 1014.7
20260505023736 60 173 0.9 5.2 0.00 0.00 0.00 63 1014.6
20260505023236 60 63 0.9 4.3 0.00 0.00 0.00 63 1014.5
20260505023002 60 0 1.7 7.8 0.00 0.00 0.00 63 1014.6
20260505022500 60 204 0.9 7.8 0.00 0.00 0.00 63 1014.7
20260505021737 60 39 1.7 6.1 0.00 0.00 0.00 62 1014.5
20260505021236 61 141 0.9 6.1 0.00 0.00 0.00 62 1014.4
20260505020736 61 300 1.7 7.8 0.00 0.00 0.00 62 1014.8
20260505020235 61 244 1.7 7.8 0.00 0.00 0.00 61 1014.5
20260505015736 61 248 1.7 5.2 0.00 0.00 0.00 61 1014.5
20260505015235 61 223 2.6 5.2 0.00 0.00 0.00 60 1014.5
20260505014736 62 282 2.6 5.2 0.00 0.00 0.00 60 1014.5
20260505014236 62 281 0.0 6.1 0.00 0.00 0.00 59 1014.5
20260505013735 62 238 1.7 6.1 0.00 0.00 0.00 59 1014.5
20260505013234 62 275 1.7 5.2 0.00 0.00 0.00 58 1014.4
20260505012734 63 62 1.7 8.7 0.00 0.00 0.00 57 1014.4
20260505012457 63 55 1.7 8.7 0.00 0.00 0.00 57 1014.5
20260505011734 63 30 2.6 6.1 0.00 0.00 0.00 57 1014.6
20260505011235 63 54 1.7 4.3 0.00 0.00 0.00 55 1014.6
20260505010734 63 240 0.9 6.1 0.00 0.00 0.00 55 1014.6
20260505010235 63 354 1.7 6.1 0.00 0.00 0.00 56 1014.6
20260505005734 63 330 1.7 5.2 0.00 0.00 0.00 56 1014.7
20260505005234 63 247 1.7 5.2 0.00 0.00 0.00 57 1014.7
20260505004733 62 245 1.7 6.1 0.00 0.00 0.00 57 1014.8
20260505004233 63 237 1.7 6.1 0.00 0.00 0.00 57 1014.9
20260505003733 63 330 1.7 4.3 0.00 0.00 0.00 58 1014.9
20260505003234 63 148 1.7 5.2 0.00 0.00 0.00 58 1014.8
20260505002733 63 254 1.7 5.2 0.00 0.00 0.00 58 1014.9
20260505002234 63 272 2.6 6.1 0.00 0.00 0.00 58 1014.8
20260505001733 63 235 1.7 9.6 0.00 0.00 0.00 59 1014.8
20260505001233 63 298 4.3 9.6 0.00 0.00 0.00 58 1014.7
20260505000733 62 313 1.7 3.5 0.00 0.00 0.00 59 1014.7